Tiempo cada hora Czyzowice

Hoy, 28 Noviembre, Sábado

Tiempo Temperatura Precipitaciones Viento Presión Humedad
00:00 +2°C° 0 mm 2 mps 741 mmHg 86%
01:00 +2°C° 0 mm 2 mps 741 mmHg 83%
02:00 +2°C° 0 mm 2 mps 741 mmHg 84%
03:00 +2°C° 0 mm 2 mps 741 mmHg 85%
04:00 +3°C° 0 mm 1 mps 741 mmHg 87%
05:00 +3°C° 0 mm 1 mps 741 mmHg 86%
06:00 +3°C° 0 mm 1 mps 741 mmHg 85%
07:00 +3°C° 0 mm 1 mps 741 mmHg 85%
08:00 +3°C° 0 mm 1 mps 741 mmHg 83%
09:00 +2°C° 0 mm 2 mps 741 mmHg 82%
10:00 +2°C° 0 mm 2 mps 741 mmHg 80%
11:00 +2°C° 0.1 mm 2 mps 741 mmHg 80%
12:00 +2°C° 0.1 mm 3 mps 741 mmHg 79%
13:00 +2°C° 0.1 mm 3 mps 741 mmHg 79%
14:00 +1°C° 0.1 mm 3 mps 741 mmHg 81%
15:00 +2°C° 0.1 mm 2 mps 741 mmHg 82%
16:00 +1°C° 0.1 mm 2 mps 741 mmHg 84%
17:00 +1°C° 0 mm 2 mps 741 mmHg 85%
18:00 +1°C° 0 mm 2 mps 741 mmHg 85%
19:00 +1°C° 0 mm 2 mps 741 mmHg 86%
20:00 +1°C° 0.1 mm 2 mps 741 mmHg 86%
21:00 +1°C° 0.1 mm 2 mps 742 mmHg 86%
22:00 -1°C° 0.1 mm 2 mps 742 mmHg 85%
23:00 -1°C° 0 mm 2 mps 741 mmHg 86%

Mañana, 29 Noviembre, Domingo

Tiempo Temperatura Precipitaciones Viento Presión Humedad
00:00 -1°C° 0 mm 2 mps 741 mmHg 87%
01:00 -2°C° 0 mm 2 mps 741 mmHg 87%
02:00 -2°C° 0.1 mm 2 mps 741 mmHg 90%
03:00 -2°C° 0.1 mm 2 mps 741 mmHg 92%
04:00 -2°C° 0.1 mm 2 mps 740 mmHg 95%
05:00 -1°C° 0.4 mm 2 mps 740 mmHg 95%
06:00 -1°C° 0.4 mm 3 mps 740 mmHg 96%
07:00 -1°C° 0.4 mm 3 mps 740 mmHg 97%
08:00 -1°C° 0.3 mm 3 mps 741 mmHg 94%
09:00 -1°C° 0.3 mm 3 mps 741 mmHg 91%
10:00 0°C° 0.3 mm 3 mps 741 mmHg 88%
11:00 0°C° 0.1 mm 3 mps 741 mmHg 86%
12:00 0°C° 0.1 mm 3 mps 741 mmHg 84%
13:00 +1°C° 0.1 mm 2 mps 741 mmHg 82%
14:00 +1°C° 0.1 mm 2 mps 741 mmHg 83%
15:00 -1°C° 0.1 mm 2 mps 741 mmHg 85%
16:00 +1°C° 0.1 mm 1 mps 741 mmHg 86%
17:00 0°C° 0 mm 1 mps 741 mmHg 87%
18:00 0°C° 0 mm 1 mps 741 mmHg 89%
19:00 -1°C° 0 mm 0 mps 742 mmHg 90%
20:00 -1°C° 0 mm 0 mps 742 mmHg 91%
21:00 -2°C° 0 mm 0 mps 742 mmHg 92%
22:00 -2°C° 0 mm 0 mps 742 mmHg 93%
23:00 -2°C° 0.1 mm 0 mps 742 mmHg 93%

Pasado mañana, 30 Noviembre, Lunes

Tiempo Temperatura Precipitaciones Viento Presión Humedad
00:00 -2°C° 0.1 mm 0 mps 742 mmHg 94%
01:00 -2°C° 0.1 mm 0 mps 743 mmHg 95%
02:00 -1°C° 0.1 mm 1 mps 743 mmHg 95%
03:00 -1°C° 0.1 mm 1 mps 743 mmHg 95%
04:00 -1°C° 0.1 mm 1 mps 743 mmHg 96%
05:00 -1°C° 0.1 mm 1 mps 743 mmHg 96%
06:00 -1°C° 0.1 mm 1 mps 743 mmHg 96%
07:00 -1°C° 0.1 mm 1 mps 744 mmHg 95%
08:00 -1°C° 0 mm 1 mps 744 mmHg 91%
09:00 0°C° 0 mm 1 mps 744 mmHg 87%
10:00 0°C° 0 mm 1 mps 745 mmHg 83%
11:00 +1°C° 0 mm 1 mps 745 mmHg 79%
12:00 +1°C° 0 mm 1 mps 745 mmHg 75%
13:00 +2°C° 0 mm 1 mps 745 mmHg 71%
14:00 +1°C° 0 mm 1 mps 744 mmHg 75%
15:00 0°C° 0 mm 1 mps 744 mmHg 79%
16:00 -1°C° 0 mm 1 mps 744 mmHg 82%
17:00 -1°C° 0 mm 1 mps 744 mmHg 82%
18:00 -1°C° 0 mm 1 mps 745 mmHg 83%
19:00 -1°C° 0 mm 1 mps 745 mmHg 83%
20:00 -3°C° 0 mm 2 mps 745 mmHg 83%
21:00 -3°C° 0 mm 2 mps 745 mmHg 83%
22:00 -3°C° 0 mm 2 mps 745 mmHg 83%
23:00 -3°C° 0 mm 2 mps 744 mmHg 83%

1 Diciembre, Martes

Tiempo Temperatura Precipitaciones Viento Presión Humedad
00:00 -3°C° 0 mm 2 mps 744 mmHg 83%
01:00 -4°C° 0 mm 2 mps 744 mmHg 82%
02:00 -4°C° 0 mm 2 mps 744 mmHg 83%
03:00 -4°C° 0 mm 2 mps 743 mmHg 83%
04:00 -4°C° 0 mm 2 mps 743 mmHg 83%
05:00 -4°C° 0 mm 2 mps 743 mmHg 83%
06:00 -4°C° 0 mm 2 mps 743 mmHg 84%
07:00 -4°C° 0 mm 2 mps 743 mmHg 84%
08:00 -3°C° 0 mm 2 mps 743 mmHg 81%
09:00 -2°C° 0 mm 3 mps 743 mmHg 78%
10:00 -1°C° 0 mm 3 mps 742 mmHg 74%
11:00 -1°C° 0 mm 3 mps 742 mmHg 73%
12:00 0°C° 0 mm 3 mps 742 mmHg 71%
13:00 0°C° 0 mm 3 mps 742 mmHg 69%
14:00 +1°C° 0 mm 2 mps 742 mmHg 73%
15:00 -1°C° 0 mm 2 mps 742 mmHg 77%
16:00 -2°C° 0 mm 2 mps 742 mmHg 81%
17:00 -3°C° 0 mm 2 mps 742 mmHg 82%
18:00 -1°C° 0 mm 1 mps 742 mmHg 83%
19:00 -1°C° 0 mm 1 mps 742 mmHg 84%
20:00 -1°C° 0 mm 1 mps 742 mmHg 83%
21:00 -2°C° 0 mm 1 mps 742 mmHg 83%
22:00 -2°C° 0 mm 1 mps 743 mmHg 83%
23:00 -2°C° 0 mm 1 mps 743 mmHg 82%

2 Diciembre, Miércoles

Tiempo Temperatura Precipitaciones Viento Presión Humedad
00:00 -2°C° 0 mm 1 mps 743 mmHg 81%
01:00 -2°C° 0 mm 1 mps 743 mmHg 81%
02:00 -2°C° 0 mm 1 mps 743 mmHg 80%
03:00 -2°C° 0 mm 1 mps 743 mmHg 79%
04:00 -2°C° 0 mm 1 mps 743 mmHg 79%
05:00 -2°C° 0 mm 1 mps 743 mmHg 78%
06:00 -2°C° 0 mm 1 mps 743 mmHg 78%
07:00 -2°C° 0 mm 1 mps 743 mmHg 77%
08:00 -1°C° 0 mm 1 mps 743 mmHg 73%
09:00 -1°C° 0 mm 1 mps 743 mmHg 69%
10:00 0°C° 0 mm 1 mps 743 mmHg 65%
11:00 +1°C° 0 mm 1 mps 743 mmHg 63%
12:00 +1°C° 0 mm 1 mps 743 mmHg 62%
13:00 +2°C° 0 mm 1 mps 742 mmHg 60%
14:00 +1°C° 0 mm 1 mps 742 mmHg 64%
15:00 0°C° 0 mm 1 mps 742 mmHg 68%
16:00 -1°C° 0 mm 1 mps 742 mmHg 72%
17:00 -1°C° 0 mm 1 mps 742 mmHg 73%
18:00 -3°C° 0 mm 2 mps 742 mmHg 73%
19:00 -3°C° 0 mm 2 mps 742 mmHg 74%
20:00 -3°C° 0 mm 2 mps 742 mmHg 73%
21:00 -4°C° 0 mm 2 mps 742 mmHg 73%
22:00 -4°C° 0 mm 2 mps 742 mmHg 73%
23:00 -4°C° 0 mm 2 mps 742 mmHg 72%

3 Diciembre, Jueves

Tiempo Temperatura Precipitaciones Viento Presión Humedad
00:00 -4°C° 0 mm 2 mps 742 mmHg 71%
01:00 -4°C° 0 mm 2 mps 741 mmHg 71%
02:00 -4°C° 0 mm 2 mps 741 mmHg 70%
03:00 -4°C° 0 mm 2 mps 741 mmHg 70%
04:00 -4°C° 0 mm 2 mps 741 mmHg 70%
05:00 -4°C° 0 mm 2 mps 741 mmHg 69%
06:00 -4°C° 0 mm 2 mps 740 mmHg 68%
07:00 -4°C° 0 mm 2 mps 740 mmHg 68%
08:00 -1°C° 0 mm 1 mps 740 mmHg 65%
09:00 0°C° 0 mm 1 mps 740 mmHg 62%
10:00 0°C° 0 mm 1 mps 740 mmHg 60%
11:00 +1°C° 0 mm 1 mps 740 mmHg 59%
12:00 +1°C° 0 mm 1 mps 739 mmHg 57%
13:00 +2°C° 0 mm 1 mps 739 mmHg 56%
14:00 +1°C° 0 mm 1 mps 738 mmHg 59%
15:00 0°C° 0 mm 1 mps 738 mmHg 61%
16:00 -1°C° 0 mm 1 mps 737 mmHg 63%
17:00 -1°C° 0 mm 1 mps 737 mmHg 64%
18:00 -1°C° 0 mm 1 mps 737 mmHg 64%
19:00 -1°C° 0 mm 1 mps 737 mmHg 65%
20:00 -1°C° 0 mm 1 mps 736 mmHg 65%
21:00 -1°C° 0 mm 1 mps 736 mmHg 64%
22:00 -1°C° 0 mm 1 mps 736 mmHg 64%
23:00 -1°C° 0 mm 1 mps 736 mmHg 64%
Mostrar más

Necesitamos Su Consentimiento

Meteoprog y nuestros Proveedores de Servicios pueden almacenar y acceder a sus datos personales como cookies, identificadores de dispositivo u otras tecnologías similares de su dispositivo y procesar dichos datos para personalizar contenido y anuncios, además de ofrecer funciones de redes sociales y analizar el tráfico.

  • Almacenar y/o acceder a información en su dispositivo

    Se puede almacenar o acceder a cookies, identificadores de dispositivo u otra información de su dispositivo para los fines anteriormente indicados.

  • Anuncios y contenido personalizados, medición de anuncios y contenido, percepciones del público, y desarrollo de productos

    Los anuncios y el contenido pueden personalizarse en base a su perfil. Se pueden añadir más datos para personalizar mejor los anuncios y contenidos. Se puede medir el rendimiento de los anuncios y contenidos. Se puede obtener la percepción sobre el público que ha visto los anuncios y contenidos. Dichos datos pueden usarse para desarrollar o mejorar la experiencia del usuario, sistemas y software.

Al hacer clic en ‘Estoy De Acuerdo’ usted permitirá el uso de las cookies, identificadores de dispositivo, balizas web u otras tecnologías similares indicadas. Su configuración puede cambiarse desde el navegador de su dispositivo.

Para ciertos fines, los intereses legítimos pueden ser considerados por encima del consentimiento. Puede leer más sobre ello en nuestra Política de Privacidad y Cookies.